This is the latest recevied weather packets stored in our database for station/object EB1HRW. If no packets are shown the sender has not sent any weather packets the latest 10 day(s).
| Time | Temp. | Humidity | Pressure | Rain* | Wind** | Luminosity | Snow |
|---|---|---|---|---|---|---|---|
| 1787438134 | 21.11° C | 54% | 1011.2 hPa | 0 mm | - | - | - |
| 1787437234 | 21.67° C | 55% | 1011.3 hPa | 0 mm | - | - | - |
| 1787436335 | 22.22° C | 52% | 1011.1 hPa | 0 mm | - | - | - |
| 1787435435 | 23.33° C | 48% | 1011.2 hPa | 0 mm | - | - | - |
| 1787434534 | 23.89° C | 46% | 1011.1 hPa | 0 mm | - | - | - |
| 1787433635 | 23.89° C | 42% | 1011.2 hPa | 0 mm | - | - | - |
| 1787432735 | 25° C | 37% | 1011.1 hPa | 0 mm | - | - | - |
| 1787431834 | 25° C | 37% | 1011 hPa | 0 mm | - | - | - |
| 1787430934 | 26.11° C | 37% | 1010.8 hPa | 0 mm | - | - | - |
| 1787430035 | 26.11° C | 36% | 1010.6 hPa | 0 mm | - | - | - |
| 1787429134 | 26.67° C | 35% | 1010.4 hPa | 0 mm | - | - | - |
| 1787428236 | 26.67° C | 36% | 1010.2 hPa | 0 mm | - | - | - |
| 1787427334 | 27.22° C | 34% | 1010 hPa | 0 mm | - | - | - |
| 1787426435 | 27.78° C | 33% | 1009.9 hPa | 0 mm | - | - | - |
| 1787425534 | 28.89° C | 31% | 1009.8 hPa | 0 mm | - | - | - |
| 1787424635 | 28.89° C | 31% | 1009.6 hPa | 0 mm | - | - | - |
| 1787423734 | 29.44° C | 31% | 1009.6 hPa | 0 mm | - | - | - |
| 1787422835 | 30° C | 30% | 1009.5 hPa | 0 mm | - | - | - |
| 1787421935 | 30° C | 30% | 1009.5 hPa | 0 mm | - | - | - |
| 1787421034 | 30.56° C | 30% | 1009.6 hPa | 0 mm | - | - | - |
| 1787420135 | 30° C | 30% | 1009.6 hPa | 0 mm | - | - | - |
| 1787419234 | 30.56° C | 30% | 1009.5 hPa | 0 mm | - | - | - |
| 1787418334 | 30° C | 31% | 1009.5 hPa | 0 mm | - | - | - |
| 1787416536 | 30° C | 31% | 1009.6 hPa | 0 mm | - | - | - |
| 1787415635 | 30.56° C | 30% | 1009.7 hPa | 0 mm | - | - | - |
* Rain latest hour (hover to see other rain measurements)
** Current wind speed in m/s (hover to see current wind gust speed)